Location: Mosnang
(47.3625°N, 9.0430°E)
Time: 01:50:56
(UTC+00:00)

Daily predictions for brighter satellites

Satellite Brightness Start Highest point End
(mag) Time Altitude Azimuth Time Altitude Azimuth Time Altitude Azimuth
Meteor 1-11 Rocket 4.1 00:00:55 10° NNW 00:06:15 59° WNW 00:06:15 59° WNW
Resurs 1-4 Rocket 3.5 00:06:52 10° NE 00:11:18 27° E 00:11:25 27° E
Cosmos 1777 Rocket 4.2 00:13:00 66° NNE 00:13:00 66° NNE 00:17:30 10° NNE
USA 308 4.3 00:13:11 36° N 00:13:11 36° N 00:16:57 10° ENE
Cosmos 1844 Rocket 3.6 00:12:33 37° WNW 00:13:07 38° NW 00:18:19 10° NNE
Cosmos 2218 Rocket 4.2 00:08:50 10° N 00:14:59 63° ENE 00:15:47 57° ESE
Helios 1A 4.2 00:21:11 39° NNW 00:21:11 39° NNW 00:23:54 10° NNW
Cosmos 2366 rocket 4.1 00:14:10 10° N 00:20:19 66° E 00:21:03 61° ESE
Cosmos 1733 Rocket 4.0 00:22:01 10° N 00:25:12 46° N 00:25:12 46° N
CZ-4C R/B 3.2 00:22:53 10° NW 00:29:56 67° NE 00:38:10 10° SE
Cosmos 1340 Rocket 4.4 00:28:22 10° NNW 00:30:40 33° NNW 00:30:40 33° NNW
CZ-2D R/B 3.0 00:27:44 10° NNE 00:32:55 41° E 00:33:21 40° ESE
Meteor 1-19 Rocket 4.5 00:32:44 56° ESE 00:32:57 56° E 00:38:19 10° NNE
NOSS 3-3 (A) 3.8 00:35:03 69° SE 00:35:11 70° SE 00:41:43 10° NE
NOSS 3-3 (C) 3.8 00:35:10 69° SE 00:35:17 69° SE 00:41:49 10° NE
Cosmos 2082 Rocket 2.6 00:30:51 10° NNW 00:36:25 58° ENE 00:38:00 42° ESE
Cosmos 1833 Rocket 2.6 00:32:29 10° NNW 00:37:44 74° WNW 00:37:44 74° WNW
SL-16 R/B 2.9 00:36:28 42° SE 00:38:31 62° ENE 00:44:42 10° N
ATLAS 2AS CENTAUR R/B 4.1 00:32:45 10° NW 00:39:44 39° NNE 00:46:15 10° E
ADEOS II 3.8 00:35:56 10° NE 00:40:01 22° E 00:41:22 20° ESE
Cosmos 1862 Rocket 4.0 00:52:44 59° N 00:52:44 59° N 00:56:19 10° N
SJ 16-02 1.9 00:54:21 56° NNW 00:54:21 56° NNW 00:58:02 10° NNE
Cosmos 1943 Rocket 4.0 00:51:58 17° ESE 00:53:39 19° E 00:57:33 10° NE
CZ-4 R/B 4.2 00:50:47 10° N 00:55:30 57° WNW 00:55:30 57° WNW
Okean 1-7 4.0 00:58:39 38° E 00:58:39 38° E 01:02:32 10° NNE
Meteor 1-18 Rocket 4.1 00:59:26 71° S 01:00:07 85° E 01:05:54 10° NNE
MOZ.5/SAFIR/RUBIN 5/SL-8 4.3 01:01:35 47° NW 01:01:35 47° NW 01:05:12 10° NNW
Cosmos 2278 Rocket 2.1 01:01:19 71° WSW 01:01:48 77° WNW 01:07:30 10° NNE
ATLAS 5 CENTAUR R/B 2.8 01:04:13 10° NW 01:08:34 45° W 01:08:34 45° W
Cosmos 1680 Rocket 3.4 01:08:17 10° NNW 01:13:38 88° WSW 01:14:21 68° SSE
Meteor 2-9 Rocket 4.3 01:08:08 10° NNW 01:13:56 63° W 01:14:25 61° WSW
AQUA 4.0 01:10:14 10° NNE 01:14:58 59° E 01:15:28 56° SE
Cosmos 2181 Rocket 4.3 01:16:43 45° WSW 01:17:41 49° WNW 01:23:43 10° N
USA 234 4.1 01:12:46 10° ENE 01:18:40 35° SE 01:20:19 31° SSE
NPP 3.6 01:13:23 10° NNE 01:18:49 79° ESE 01:19:48 60° S
USA 306 4.5 01:19:14 15° NW 01:22:14 34° N 01:26:11 10° ENE
Helios 1B rocket 2.6 01:20:13 10° N 01:23:58 64° NW 01:23:58 64° NW
Cosmos 2369 Rocket 4.2 01:23:05 12° SE 01:26:14 19° E 01:30:04 10° ENE
COSMOS 2406 4.3 01:23:14 10° NW 01:26:56 29° W 01:26:56 29° W
UNK 3.9 01:31:04 55° W 01:31:04 55° W 01:35:17 10° NNW
Cosmos 990 Rocket 3.9 01:33:48 61° SW 01:34:39 77° WNW 01:39:54 10° NNE
Cosmos 1378 3.8 01:36:33 46° ESE 01:36:44 47° E 01:40:18 10° NNE
Cosmos 2297 4.0 01:36:46 40° SSE 01:38:36 59° ESE 01:44:13 10° NNE
X-37B 2.8 01:41:18 20° ESE 01:41:18 20° ESE 01:42:31 10° E
Gbstr 26 Del rocket 4.1 01:36:15 25° W 01:39:49 60° NNW 01:44:53 10° ENE
USA 307 4.4 01:36:58 11° WNW 01:40:47 35° N 01:44:46 10° ENE
ARGOS Delta rocket 3.9 01:37:18 10° NNE 01:41:41 61° E 01:42:43 46° SSE
Cosmos 2084 3.2 01:47:50 75° SSW 01:48:10 86° SE 01:52:28 10° NE
Sich 1 Rocket 4.1 01:46:39 10° N 01:51:12 60° ENE 01:53:55 23° SSE
Resurs 1-4 Rocket 2.5 01:46:18 10° N 01:51:19 46° WNW 01:52:30 40° WSW
Cosmos 1937 Rocket 3.4 01:50:18 50° SSW 01:51:42 89° WNW 01:56:52 10° NNE
Cosmos 2242 Rocket 3.8 01:53:19 50° W 01:53:37 51° WNW 01:57:56 10° N
USA 308 4.3 01:49:38 10° WNW 01:53:40 37° N 01:57:41 10° E
Cosmos 858 Rocket 4.4 01:54:31 47° SSW 01:56:04 86° WNW 02:01:19 10° NNE
Cosmos 2239 Rocket 4.5 01:50:01 10° NNW 01:56:10 67° W 01:59:00 34° SSW
Cosmos 1733 4.4 01:54:13 10° N 01:57:48 39° ENE 02:00:34 15° SE
DELTA 2 DEB (DPAF) 4.1 01:57:25 54° SW 01:58:05 62° WSW 02:02:31 10° NNW
Cosmos 1898 Rocket 3.7 01:59:46 42° WSW 02:01:17 57° WNW 02:06:31 10° NNE
ARIANE 5 R/B 3.8 01:56:50 10° NNE 02:01:41 37° E 02:05:54 13° SSE
IKONOS-2 4.4 02:00:54 37° SSE 02:02:33 88° WSW 02:06:52 10° NNW
OE (NEXTSAT) 4.5 02:05:33 59° SE 02:05:33 59° SE 02:08:43 10° E
SL-08 R/B 4.4 02:01:06 10° SE 02:05:45 47° ENE 02:10:21 10° N
Cosmos 372 Rocket 4.1 02:05:10 34° S 02:07:25 71° ESE 02:12:31 10° NNE
Cosmos 1821 Rocket 4.5 02:06:54 10° NNW 02:12:48 42° W 02:15:09 31° SW
CZ-2D R/B 3.1 02:07:58 10° N 02:12:51 34° WNW 02:14:41 27° W
CZ-4C R/B 3.5 02:13:25 34° S 02:15:13 68° WSW 02:19:40 10° NNW
Okean 3 3.5 02:15:08 44° SW 02:16:17 62° WNW 02:20:33 10° N
Meteor 1-29 4.2 02:13:57 10° N 02:16:35 26° WNW 02:16:35 26° WNW
NOSS 3-4 (A) 3.9 02:10:00 10° NW 02:16:51 56° WSW 02:24:28 10° SSE
NOSS 3-4 (C) 3.9 02:10:06 10° NW 02:16:58 57° WSW 02:24:35 10° SSE
Cosmos 1805 3.2 02:14:12 10° N 02:18:08 87° E 02:20:14 26° S
IRS-P3 4.4 02:13:06 10° NNE 02:18:26 64° ESE 02:22:19 19° S
CZ-4C R/B 3.4 02:11:42 10° NW 02:18:27 38° WSW 02:26:00 10° S
CBERS-1 3.9 02:14:31 10° NNE 02:19:39 78° WNW 02:22:13 30° SSW
ADEOS II 2.3 02:14:55 10° N 02:20:03 56° WNW 02:22:19 32° SW
Cosmos 2082 Rocket 3.3 02:15:38 10° NW 02:19:48 24° W 02:19:48 24° W
CZ-3B R/B 4.4 02:08:18 22° SSW 02:22:16 60° SE 02:27:40 10° ENE
SL-16 R/B 3.5 02:21:33 25° WSW 02:22:32 26° W 02:27:39 10° NW
Meteor 1-13 Rocket 4.4 02:23:26 29° SW 02:26:16 59° WNW 02:31:53 10° N
Meteor 1-28 Rocket 3.5 02:26:38 40° WSW 02:26:56 41° W 02:30:28 10° NNW
Cosmos 1782 Rocket 4.5 02:24:44 10° NNW 02:28:38 30° W 02:29:10 29° WSW
BREEZE-M R/B 4.2 02:25:02 13° WNW 02:29:08 76° NNE 02:39:08 10° E
Cosmos 1300 Rocket 3.5 02:25:55 10° NNW 02:30:20 64° W 02:33:03 22° S
ATLAS 2AS CENTAUR R/B 2.7 02:23:56 10° NW 02:31:16 70° WSW 02:38:00 10° SSE
IRS-1D 3.9 02:27:12 10° N 02:32:13 52° WNW 02:34:55 27° SW
SJ 16-02 3.8 02:32:06 10° WNW 02:33:04 11° NW 02:34:02 10° NW
ADEOS Rocket 3.3 02:28:40 13° S 02:34:35 59° W 02:41:46 10° NNW
CZ-4B R/B 3.4 02:30:17 10° NNE 02:35:04 77° ESE 02:38:45 17° S
Okean 1-7 4.4 02:35:30 21° W 02:36:18 22° WNW 02:39:37 10° NNW
Cosmos 1943 Rocket 2.2 02:33:30 26° SW 02:36:47 72° WNW 02:42:27 10° NNE
Cosmos 1125 Rocket 4.4 02:33:08 11° S 02:38:00 46° ESE 02:43:01 10° NNE
Cosmos 2151 Rocket 3.5 02:34:20 10° N 02:38:54 84° W 02:43:25 10° S
IDEFIX/ARIANE 42P 2.5 02:34:23 10° N 02:39:35 72° WNW 02:43:11 21° SSW
DNEPR-1 R/B 4.4 02:35:56 20° SSW 02:40:14 65° SE 02:45:21 10° NE
Okean 2 Rocket 3.1 02:38:24 10° NNW 02:42:47 59° W 02:46:13 16° S
USA 305 3.6 02:40:25 10° NW 02:44:38 55° NNE 02:48:51 10° E
Cosmos 2278 Rocket 4.1 02:43:09 10° W 02:46:53 18° NW 02:50:40 10° N
Cosmos 1934 Rocket 4.5 02:42:42 10° NNW 02:48:28 40° W 02:52:44 17° SSW
Cosmos 1400 Rocket 3.7 02:46:14 10° N 02:50:18 53° ENE 02:54:20 10° SSE
Cosmos 2221 Rocket 3.9 02:51:52 21° SW 02:54:41 52° WNW 02:59:08 10° N
RESURS DK-1 4.3 02:51:49 10° NNW 02:55:37 33° NE 02:59:23 10° ESE
Cosmos 44 3.5 02:50:10 10° NW 02:55:39 86° SW 03:00:57 10° SSE
CZ-2C R/B 3.4 02:51:31 10° NNE 02:56:11 47° E 03:00:56 10° S
Cosmos 2344 4.4 02:46:56 10° NW 02:56:11 88° NE 03:09:11 10° SE
Cosmos 1356 Rocket 4.5 02:56:08 10° NW 02:59:37 27° W 03:01:21 20° SW
Cosmos 1842 3.2 02:56:24 13° S 02:59:53 90° E 03:03:46 10° N
Cosmos 1900 4.4 02:56:49 18° SSW 03:00:41 90° SE 03:05:49 10° NE
Cosmos 2150 Rocket 4.1 02:56:23 13° SSW 03:01:13 90° ENE 03:06:40 10° NNE
Okean 1 Rocket 3.2 02:56:53 10° N 03:01:23 82° E 03:05:49 10° S
USA 234 3.3 02:55:31 10° NE 03:02:06 82° NNW 03:07:40 15° WSW
USA 306 3.3 02:58:27 10° WNW 03:02:44 65° NNE 03:07:01 10° ESE
SL-27 R/B 3.0 02:59:57 10° NNW 03:03:14 57° ENE 03:06:28 10° SSE
ERS-1 4.5 02:58:53 10° N 03:03:50 68° WNW 03:08:29 12° SSW
MSX 3.9 02:59:35 10° N 03:05:17 64° WNW 03:10:44 11° SSW
Cosmos 2369 Rocket 2.2 03:04:53 15° SW 03:09:37 73° WNW 03:15:16 10° NNE
Cosmos 1833 4.3 03:03:53 10° NNW 03:09:39 88° ENE 03:15:25 10° SSE
CREW DRAGON DEMO-1 DEB 4.0 03:08:29 10° WNW 03:11:01 34° N 03:13:32 10° ENE
Cosmos 1802 Rocket 4.5 03:04:57 10° N 03:11:12 65° ENE 03:17:18 10° SSE
X-37B 0.8 03:13:35 16° W 03:15:53 53° S 03:19:00 10° ESE
Cosmos 1378 Rocket 3.6 03:15:06 10° SSW 03:19:27 61° W 03:23:50 10° N
USA 307 3.1 03:16:54 10° WNW 03:21:13 78° NNE 03:25:31 10° ESE
Cosmos 1048 Rocket 4.4 03:19:01 10° NW 03:24:04 43° WSW 03:29:04 10° S
CZ-2C R/B 2.7 03:21:20 10° NNE 03:25:09 89° E 03:29:02 10° SSW
Cosmos 1953 4.1 03:22:56 10° N 03:26:38 36° ENE 03:30:17 10° SE
Gbstr 26 Del rocket 4.0 03:21:49 10° WNW 03:27:24 58° N 03:31:54 10° E
Cosmos 2016 Rocket 4.3 03:24:31 10° N 03:30:56 76° E 03:37:13 10° SSE
FENGYUN 3A 4.2 03:25:49 10° NNE 03:31:10 61° E 03:36:28 10° S
Cosmos 1818 3.6 03:26:06 10° NW 03:31:29 57° WSW 03:36:48 10° SSE
COSMOS 2487 4.4 03:30:50 10° N 03:33:59 33° ENE 03:37:05 10° SE
USA 308 2.9 03:29:42 10° WNW 03:34:02 89° SSW 03:38:20 10° ESE
Cosmos 1674 Rocket 4.2 03:30:45 10° SW 03:34:47 36° WNW 03:38:54 10° N
Cosmos 2100 Rocket 4.0 03:31:00 10° NNW 03:37:06 64° W 03:43:15 10° S
Cosmos 1656 Rocket 3.7 03:31:45 10° SW 03:37:08 69° WNW 03:42:37 10° NNE
Meteor 2-10 4.4 03:34:42 10° NNW 03:40:10 50° W 03:45:29 10° SSW
Okean 2 3.8 03:36:36 10° SSW 03:40:35 46° WNW 03:44:38 10° N
ARIANE 5 R/B 3.4 03:36:01 10° N 03:40:43 35° WNW 03:45:23 10° SW
Cosmos 494 Rocket 4.4 03:35:51 10° NW 03:40:45 41° WSW 03:45:36 10° S
OE (NEXTSAT) 4.4 03:39:15 10° W 03:42:41 64° S 03:46:08 10° ESE
Cosmos 2173 Rocket 4.0 03:37:27 10° NNW 03:43:26 61° W 03:49:26 10° S
SL-08 R/B 4.5 03:39:52 10° SSW 03:43:45 24° W 03:47:38 10° NW
Cosmos 2084 Rocket 3.5 03:40:11 10° NW 03:44:30 86° SW 03:48:58 10° SE
Cosmos 1758 3.4 03:40:39 10° NNW 03:44:42 63° W 03:48:43 10° S
PAYLOAD A 4.1 03:43:05 10° N 03:48:04 57° WNW 03:52:51 10° SSW
Cosmos 1674 3.7 03:44:25 10° S 03:48:06 50° E 03:51:49 10° NNE
Cosmos 2061 Rocket 4.1 03:43:14 10° N 03:49:29 85° W 03:55:46 10° S
